Regional Weather Roundup
Issued by NWS Sioux Falls, SD

Home | Current Version | Previous Version | Graphics & Text | Print | Product List | Glossary On
Versions: 1 2 3 4 5 6 7 8 9 10 11 12 13 14 15 16 17 18 19 20 21 22 23 24 25 26 27 28 29 30 31 32 33 34 35 36 37 38 39 40 41 42 43 44 45 46 47 48 49 50
000
ASUS43 KFSD 301710
RWRFSD

WEATHER ROUNDUP FOR SE SOUTH DAKOTA/SW MINNESOTA/NW IOWA
NATIONAL WEATHER SERVICE SIOUX FALLS SD
1200 PM CDT SAT AUG 30 2014

NOTE: "FAIR" INDICATES FEW OR NO CLOUDS BELOW 12,000 FEET WITH NO
SIGNIFICANT WEATHER AND OR OBSTRUCTIONS TO VISIBILITY.


SDZ038>040-050-052>070-301800-
SOUTHEAST SOUTH DAKOTA

CITY           SKY/WX    TMP DP  RH WIND       PRES   REMARKS
CHAMBERLAIN    SUNNY     65  57  76 CALM      29.95F
HURON          CLOUDY    65  56  72 VRB5      29.93F
MADISON        CLOUDY    63  63 100 N7        29.94S
MITCHELL       CLOUDY    63  58  83 W3        29.95F
SIOUX FALLS    CLOUDY    65  61  87 NW5       29.94S
WINNER         FAIR      72  56  57 SE8       29.94F
YANKTON        CLOUDY    64  57  77 W10       29.96S
$$

MNZ071-072-080-081-089-090-097-098-301800-
SOUTHWEST MINNESOTA

CITY           SKY/WX    TMP DP  RH WIND       PRES   REMARKS
FAIRMONT       CLOUDY    64  61  88 NW10      29.91S
JACKSON        CLOUDY    70  63  78 NW6       29.92F
LUVERNE        CLOUDY    68  61  77 NW6       29.93S
MARSHALL       CLOUDY    63  57  82 NW9       29.91S
MONTEVIDEO     CLOUDY    64  64 100 NW7       29.91S
PIPESTONE      CLOUDY    64  61  88 CALM      29.93S
REDWOOD FALLS  CLOUDY    66  63  90 W7        29.89F
TRACY          CLOUDY    64  62  94 CALM      29.92S FOG
WINDOM         PTSUNNY   66  63  88 NW6       29.92S
WORTHINGTON    CLOUDY    64  63  94 N7        29.94F
$$

IAZ001>003-012>014-020>022-031-032-NEZ013-014-SDZ071-301800-
NORTHWEST IOWA

CITY           SKY/WX    TMP DP  RH WIND       PRES   REMARKS
CHEROKEE       CLOUDY    67  65  94 W9        29.94R
DENISON        CLOUDY    70  68  94 W7        29.93S
ESTHERVILLE    CLOUDY    68  64  87 N6        29.91F
LE MARS        CLOUDY    68  63  83 W8        29.95S
ORANGE CITY    PTSUNNY   72  63  73 W8        29.94S
SHELDON        MOSUNNY   72  63  73 W5        29.91F
SIOUX CITY     NOT AVBL
SPENCER        PTSUNNY   71  63  75 CALM      29.92S
STORM LAKE     PTSUNNY   72  72 100 NW7       29.93S
$$

ABBREVIATIONS USED IN REMARKS
   TC - TEMPERATURE IN CELSIUS
  WCI - WIND CHILL INDEX
   HX - HEAT INDEX
  VSB - VISIBILITY



USA.gov is the U.S. government's official web portal to all federal, state and local government web resources and services.